Voltar ao catálogo

SHIYAN 4

SY-4

AtivoCiênciaSSO
NORAD 37931·PAYLOAD·🇨🇳 China

Lançado Nov 20, 2011 de Jiuquan Satellite Launch Center

Loading…

Próximas Passagens (próximas 24 horas)

TLE

AtualizadoSource: Space-Track

Época: Sep 14, 2026, 07:11 UTC

1 37931U 11068B   26257.29990784  .00000082  00000-0  47977-4 0  9997
2 37931  98.6941 276.3955 0021855 242.9979 127.7615 14.31155215771644

Acompanhe SHIYAN 4 em tempo real com AllMySat

Download on the App Store